TimeMDT,TemperatureF,Dew PointF,Humidity,Sea Level PressureIn,VisibilityMPH,Wind Direction,Wind SpeedMPH,Gust SpeedMPH,PrecipitationIn,Events,Conditions,WindDirDegrees,DateUTC
12:51 AM,61.0,39.0,44,29.99,10.0,Calm,Calm,-,N/A,,Clear,0,2013-09-12 06:51:00
1:51 AM,59.0,37.0,44,30.00,10.0,NNE,4.6,-,N/A,,Clear,30,2013-09-12 07:51:00
2:51 AM,59.0,39.9,49,30.01,10.0,Calm,Calm,-,N/A,,Clear,0,2013-09-12 08:51:00
3:51 AM,57.9,41.0,53,30.01,10.0,Calm,Calm,-,N/A,,Clear,0,2013-09-12 09:51:00
4:51 AM,57.0,41.0,55,30.00,10.0,Calm,Calm,-,N/A,,Clear,0,2013-09-12 10:51:00
5:51 AM,53.1,39.9,61,30.01,10.0,Calm,Calm,-,N/A,,Clear,0,2013-09-12 11:51:00
6:51 AM,52.0,41.0,66,30.02,10.0,Calm,Calm,-,N/A,,Clear,0,2013-09-12 12:51:00
7:51 AM,54.0,41.0,62,30.03,10.0,Calm,Calm,-,N/A,,Scattered Clouds,0,2013-09-12 13:51:00
8:51 AM,55.9,43.0,62,30.05,10.0,Calm,Calm,-,N/A,,Scattered Clouds,0,2013-09-12 14:51:00
9:51 AM,63.0,44.1,50,30.04,10.0,Calm,Calm,-,N/A,,Overcast,0,2013-09-12 15:51:00
10:51 AM,66.9,45.0,45,30.04,10.0,Calm,Calm,-,N/A,,Overcast,0,2013-09-12 16:51:00
11:51 AM,72.0,46.9,41,30.02,10.0,Calm,Calm,-,N/A,,Overcast,0,2013-09-12 17:51:00
12:51 PM,75.9,46.9,36,30.00,10.0,WSW,8.1,-,N/A,,Partly Cloudy,250,2013-09-12 18:51:00
1:51 PM,78.1,46.9,33,29.99,10.0,West,8.1,-,N/A,,Overcast,280,2013-09-12 19:51:00
2:51 PM,77.0,48.0,36,29.98,10.0,NW,9.2,-,N/A,,Overcast,320,2013-09-12 20:51:00
3:51 PM,75.9,48.0,37,29.96,10.0,Variable,3.5,-,N/A,,Overcast,0,2013-09-12 21:51:00
4:51 PM,75.0,46.9,37,29.96,10.0,West,3.5,-,N/A,,Scattered Clouds,280,2013-09-12 22:51:00
5:51 PM,75.0,45.0,34,29.95,10.0,WNW,4.6,-,N/A,,Mostly Cloudy,300,2013-09-12 23:51:00
6:51 PM,75.0,45.0,34,29.94,10.0,Calm,Calm,-,N/A,,Overcast,0,2013-09-13 00:51:00
7:51 PM,72.0,46.0,40,29.96,10.0,North,10.4,-,N/A,,Overcast,360,2013-09-13 01:51:00
8:51 PM,63.0,54.0,72,29.99,10.0,East,8.1,-,0.00,,Overcast,100,2013-09-13 02:51:00
9:51 PM,64.0,53.1,67,29.96,10.0,North,4.6,-,N/A,,Overcast,360,2013-09-13 03:51:00
10:51 PM,62.1,55.0,78,29.98,9.0,Calm,Calm,-,0.01,Rain,Light Rain,0,2013-09-13 04:51:00
11:51 PM,61.0,55.9,83,29.97,10.0,ENE,3.5,-,0.00,,Overcast,70,2013-09-13 05:51:00